Regional Weather Roundup
Issued by NWS

Home | Current Version | Previous Version | Graphics & Text | Print | Product List | Glossary On
Versions: 1 2 3 4 5 6 7 8 9 10 11 12 13 14 15 16 17 18 19 20 21 22 23 24 25 26 27 28 29 30 31 32 33 34 35 36 37 38 39 40 41 42 43 44 45 46 47 48 49 50
342
ASUS43 KIND 231300
RWRIN

WEATHER ROUNDUP FOR INDIANA
NATIONAL WEATHER SERVICE INDIANAPOLIS IN
900 AM EDT SAT SEP 23 2017

NOTE: "FAIR" INDICATES FEW OR NO CLOUDS BELOW 12,000 FEET WITH NO
SIGNIFICANT WEATHER AND/OR OBSTRUCTIONS TO VISIBILITY.

* - STATION DOES NOT REPORT WEATHER SUCH AS PRECIPITATION OR FOG.

+ - STATION NOT QUALITY CONTROLLED BY THE NATIONAL WEATHER SERVICE.
    USE DATA WITH CAUTION...ESPECIALLY DEWPOINT AND RELATIVE
    HUMIDITY OBSERVATIONS.

INZ001>003-010>013-019-020-231400-
NORTHWEST INDIANA

CITY           SKY/WX    TMP DP  RH WIND       PRES   REMARKS
GARY /AIRPORT/ MOSUNNY   72  68  88 SE3       30.10R
MICHIGAN CITY+ SUNNY     70  70 100 CALM      30.12R

$$

LMZ046-743>745-231400-
SOUTHERN LAKE MICHIGAN

STATION/POSITION TIME  TEMP    WIND        PRES    WAVE
                       AIR SEA DIR/SP/G            HT
                 (UTC) (F)     (DEG/KT/KT) (MB)    (FT)
BURNS HARBOR     1240   75     150/  4/  5 1019.6R
MICHIGAN CITY    1230   75        CALM       N/A
5NW MICH CITY    1250   73 71  160/  2/  4   N/A     0

$$

INZ004-005-014>016-021>024-231400-
NORTH CENTRAL INDIANA

CITY           SKY/WX    TMP DP  RH WIND       PRES   REMARKS
ELKHART        SUNNY     72  66  83 CALM      30.13R FOG
GOSHEN         SUNNY     71  64  78 S3        30.13R HAZE
SOUTH BEND     SUNNY     71  69  93 E3        30.13R

$$

INZ006>009-017-018-025>027-231400-
NORTHEAST INDIANA

CITY           SKY/WX    TMP DP  RH WIND       PRES   REMARKS
FORT WAYNE     SUNNY     69  65  86 E3        30.14R FOG
KENDALLVILLE + SUNNY     68  66  92 S5        30.14R FOG

$$

INZ028-029-035-036-043>045-051>053-231400-
WEST CENTRAL INDIANA

CITY           SKY/WX    TMP DP  RH WIND       PRES   REMARKS
LAFAYETTE      SUNNY     69  69 100 CALM      30.11R FOG
TERRE HAUTE    SUNNY     71  67  87 CALM      30.10R

$$

INZ030>032-037>040-046>048-054>057-064-065-231400-
CENTRAL INDIANA

CITY           SKY/WX    TMP DP  RH WIND       PRES   REMARKS
COLUMBUS       SUNNY     66  64  94 CALM      30.12R HAZE
GREENWOOD *+   SUNNY     74  73  96 CALM      30.13R
INDIANAPOLIS   SUNNY     72  68  87 CALM      30.12R
-EAGLE CREEK   SUNNY     72  68  87 CALM      30.11R
KOKOMO +       SUNNY     70  68  93 CALM      30.14R FOG
MT COMFORT *+  SUNNY     66  64  94 CALM      30.12R
SHELBYVILLE    SUNNY     71  65  81 CALM      30.12R

$$

INZ033-034-041-042-049-050-058-059-231400-
EAST CENTRAL INDIANA

CITY           SKY/WX    TMP DP  RH WIND       PRES   REMARKS
MUNCIE         SUNNY     73  67  81 CALM      30.14R
RICHMOND +     SUNNY     68  66  94 CALM      30.16R FOG

$$

INZ060-061-067>069-081>083-085>088-231400-
SOUTHWEST INDIANA

CITY           SKY/WX    TMP DP  RH WIND       PRES   REMARKS
EVANSVILLE     SUNNY     72  68  87 MISG      30.09R
HUNTINGBURG +  SUNNY     67  66  97 CALM      30.10R FOG

$$

INZ062-063-066-070>080-084-089>092-231400-
SOUTH CENTRAL AND SOUTHEAST INDIANA

CITY           SKY/WX    TMP DP  RH WIND       PRES   REMARKS
BLOOMINGTON    MOSUNNY   70  66  87 CALM      30.11R
MADISON *+     SUNNY     68  64  88 CALM      30.14R
SEYMOUR +      SUNNY     70  70 100 CALM      30.11R FOG

$$





USA.gov is the U.S. government's official web portal to all federal, state and local government web resources and services.